Theta_e
305 306 306 305 304 304 304 304 304 303 304 304 306 308 309 308 306 305 302 299 299 298 298 298 298 298 299 299 299 298 298 298
305 305 305 305 304 303 303 303 303 302 302 302 303 303 304 303 303 301 300 298 297 297 296 296 296 296 297 297 296 296 295 294
304 305 305 305 304 303 303 302 302 302 301 300 300 300 300 300 300 299 297 296 296 296 295 294 294 294 294 294 294 293 291 291
304 304 305 305 304 303 302 301 302 300 299 298 298 297 297 297 297 296 295 294 294 294 293 293 293 292 293 293 291 291 290 290
304 304 306 305 304 303 303 302 301 300 298 297 296 296 296 296 295 294 294 293 293 293 292 292 291 290 290 290 289 289 288 288
302 303 304 305 305 304 303 303 301 298 297 296 296 295 294 293 293 292 292 292 292 291 290 289 289 288 288 287 287 286 285 286
301 302 302 302 303 303 303 301 301 298 296 296 294 293 292 291 290 289 289 289 289 288 288 287 287 289 289 287 286 285 284 283
297 298 300 302 302 302 302 302 299 297 296 294 293 291 290 290 289 287 287 287 287 287 287 286 286 288 288 287 285 284 284 282
297 297 298 299 299 300 301 300 297 295 294 294 292 291 290 288 287 286 286 285 285 286 286 285 286 286 287 286 284 283 283 282
297 296 296 296 297 296 296 296 296 294 293 293 291 290 288 286 286 286 285 285 285 285 285 284 284 286 287 284 282 281 281 281
293 293 293 294 292 290 291 291 292 292 291 291 290 289 288 287 286 286 285 284 284 284 285 284 284 286 286 284 281 279 279 279
291 290 290 290 288 286 288 288 290 287 287 287 287 286 287 286 285 284 284 283 282 282 283 284 284 285 286 285 280 279 278 277
287 287 287 288 285 284 285 286 284 284 284 283 283 284 284 284 283 283 283 281 281 281 281 282 283 285 286 285 282 282 279 277
285 283 285 286 283 282 283 282 281 280 280 280 280 282 282 283 282 281 281 281 280 280 280 280 281 282 285 285 283 282 279 279
282 281 281 283 283 282 281 280 279 279 280 280 279 280 280 281 282 281 280 280 280 280 279 279 279 281 282 282 282 280 280 279
279 278 279 280 280 281 280 278 277 278 278 278 279 279 279 279 280 280 281 282 281 281 281 279 277 279 282 281 280 278 277 276
277 277 276 276 276 277 277 276 275 276 277 277 278 277 278 278 278 281 282 282 284 284 282 281 281 282 283 283 282 280 279 273
274 273 272 272 272 273 274 273 272 273 276 277 275 276 275 276 275 275 278 280 282 282 282 282 280 281 282 283 282 281 279 271
270 269 269 269 269 271 271 270 270 271 272 274 276 275 276 275 275 276 275 275 276 280 280 281 280 280 281 282 281 277 278 272
267 268 269 268 268 270 267 266 267 270 273 274 275 275 275 275 275 276 276 276 276 277 279 279 280 280 281 281 276 274 274 274
Wind_Speed
6 7 5 4 4 4 6 7 7 6 5 5 5 5 6 6 6 5 5 7 7 7 6 6 5 5 5 4 4 5 3 3
5 5 4 4 5 5 7 8 7 7 7 7 6 7 6 6 7 7 7 7 8 8 7 7 7 6 5 5 5 5 4 3
5 5 5 5 5 6 7 8 7 7 6 7 7 8 9 9 9 8 9 8 7 7 7 7 6 6 6 6 5 5 5 5
11 9 8 7 6 7 8 9 8 8 9 10 10 10 10 9 8 8 7 7 8 8 8 8 7 7 6 6 6 6 6 6
15 14 10 6 9 9 9 9 10 10 11 11 11 10 8 8 8 9 9 9 9 9 8 7 7 7 6 6 7 6 6 5
15 15 15 13 10 9 10 10 11 12 12 14 10 10 10 11 11 10 9 8 8 8 7 7 7 6 8 8 8 7 7 6
17 18 17 15 13 13 10 10 11 12 14 11 9 11 11 10 11 10 10 9 8 9 9 9 7 11 14 10 8 8 8 8
14 15 17 17 16 14 13 11 8 12 12 11 11 12 12 11 10 11 11 9 10 10 10 10 9 14 16 13 7 7 8 8
13 14 12 12 13 14 11 10 7 11 11 11 11 12 10 11 12 12 10 11 9 10 9 8 8 15 17 14 8 7 7 8
12 13 13 11 8 10 11 11 10 11 12 11 11 12 12 14 14 12 11 11 10 9 10 9 7 17 19 15 7 7 8 7
13 13 12 11 11 10 8 8 10 10 10 7 7 9 11 11 10 9 9 9 8 9 10 11 10 20 22 17 7 9 7 7
13 13 12 10 9 12 13 10 7 4 7 7 7 9 9 8 8 9 9 8 9 10 9 10 11 16 23 23 9 8 8 8
13 13 12 10 9 12 12 10 9 8 8 6 4 4 4 5 5 7 9 9 9 9 8 8 10 15 23 24 17 15 9 9
11 15 14 10 5 13 13 9 10 7 9 7 4 5 4 5 5 6 8 8 9 9 9 8 8 8 23 24 20 16 9 7
11 14 16 12 11 10 12 10 10 11 9 4 6 4 5 4 5 6 6 6 6 7 8 7 8 9 10 10 12 13 10 12
11 13 15 14 14 13 11 9 10 9 8 5 4 5 5 5 7 7 6 9 7 8 8 9 10 11 17 16 11 10 11 9
12 13 14 15 16 14 11 9 9 10 7 6 5 4 4 5 4 11 13 14 17 15 12 6 11 18 24 25 24 23 23 8
14 15 15 15 15 13 12 10 9 10 9 6 5 5 5 5 5 6 7 13 17 16 17 16 14 20 24 25 25 25 22 8
14 14 14 13 13 12 10 10 10 9 10 7 6 5 5 5 6 6 6 7 7 14 12 16 16 19 23 23 21 12 15 9
11 12 11 13 14 10 9 10 10 8 7 6 6 5 5 5 6 5 6 6 6 5 10 11 15 18 21 25 9 8 8 7
Wind_Direction
345 351 348 328 303 255 246 238 228 224 223 230 221 219 215 198 197 185 176 168 169 171 174 171 170 173 177 169 173 173 164 165
355 348 331 309 283 252 231 227 220 216 213 213 211 207 201 200 199 194 180 178 180 181 182 183 184 185 191 185 180 185 166 162
349 319 290 272 264 259 246 239 225 220 221 223 215 205 205 206 198 189 191 187 186 184 187 190 192 190 197 191 186 182 173 168
310 315 291 272 251 241 237 235 228 227 222 222 217 210 210 206 198 193 198 189 193 191 196 196 195 195 198 194 186 185 177 174
308 311 307 270 255 240 234 224 222 218 216 224 225 218 216 210 203 198 200 197 197 199 199 194 187 191 182 186 183 177 174 163
309 308 302 296 275 251 248 227 216 221 223 224 211 210 207 204 196 197 203 207 198 191 194 186 191 191 179 184 179 169 164 161
326 320 314 306 297 281 261 242 219 221 228 231 217 203 206 207 204 195 195 194 189 191 190 192 198 186 189 180 178 172 172 165
333 329 328 324 315 295 278 269 230 231 232 224 216 212 205 200 201 205 199 189 195 193 195 196 196 186 193 188 178 174 178 168
323 323 324 319 317 317 311 294 251 244 242 234 220 220 212 204 203 202 195 194 193 196 195 197 198 187 190 182 180 180 181 173
313 314 309 307 309 312 305 293 278 266 252 236 217 221 212 211 208 204 195 192 192 186 186 190 189 185 187 180 182 178 178 177
315 314 312 326 327 305 281 281 282 282 275 262 244 232 225 217 213 208 201 195 184 182 185 184 186 188 187 181 173 179 175 171
319 308 313 326 322 307 301 286 278 267 273 267 245 232 229 215 199 191 191 183 186 182 184 183 193 182 188 188 182 181 176 174
319 318 324 319 316 308 303 314 319 308 282 244 231 242 222 206 185 187 188 186 186 183 183 187 188 188 192 191 192 186 180 178
315 314 317 321 309 311 312 316 306 298 289 278 218 191 184 196 195 189 194 196 193 191 189 186 183 191 192 194 195 196 180 174
313 311 307 319 316 298 304 303 299 294 289 261 278 221 176 194 190 203 205 211 215 205 195 183 180 186 186 188 188 193 185 174
308 304 302 313 312 312 311 310 298 291 290 282 263 249 250 213 186 204 208 204 204 210 203 191 192 194 188 180 174 174 169 154
309 306 308 312 309 313 317 308 297 292 283 267 253 243 240 236 225 225 222 217 224 215 207 207 203 197 196 187 181 174 170 155
308 306 305 304 304 311 316 312 292 281 284 275 256 250 233 225 221 221 226 224 222 216 211 199 196 197 198 192 184 180 172 172
304 300 299 299 298 307 313 311 296 283 278 278 274 256 246 238 232 219 204 197 202 211 205 203 202 197 195 192 183 185 183 172
298 295 305 303 300 313 320 306 299 293 284 274 268 260 256 246 236 229 217 209 195 175 195 192 196 198 193 190 186 180 191 189